www.pogodaiklimat.ru

Погода и климат >> Архив погоды >> Антарктида >> Марамбио


ПОГОДА на Марамбио

  • Прогноз погоды на Марамбио
  • Монитор погоды на Марамбио

АРХИВ ПОГОДЫ на Марамбио

Время (UTC), дата Ветер
(напр.,м/с)
 
Видим.   Явления Облачность Т
(С)
Тd
(С)
f
(%)
Тe
(С)
Тes
(С)
Комфортность P
(гПа)
Po
(гПа)
Тmin
(С)
Tmax
(С)
R
(мм)
R24
(мм)
S
(см)
03 15.04 В 4 15 км 10/10 90 м
[St]
-10.0 -11.2 91 -17 -17 980.1 955.0
06 15.04 СВ 4 18 км 10/10 90 м
[St]
-9.4 -10.6 91 -16 -16 979.6 954.6
09 15.04 В 5 <100 м переохл. туман ?/? -9.5 -10.7 91 -17 -17 979.1 954.2
12 15.04 В 5 <100 м переохл. туман ?/? -9.3 -10.4 92 -17 -17 977.3 952.6 -10.5 -9.2
15 15.04 В 3 <100 м переохл. туман ?/? -7.3 -8.2 93 -13 -13 975.7 951.0
18 15.04 С 25 2000 м снежные зёрна {морось} 10/8 210 м
[Frnb As op]
+1.2 -1.7 81 -10 -10 965.4 964.1
21 15.04 Ю 6 <100 м туман ?/? -8.6 -9.7 92 -17 -17 975.2 950.6
00 16.04 Ю 13 <100 м переохл. туман ?/? -8.5 -9.6 92 -20 -20 975.4 950.8 -9.4 -5.1
03 16.04 Ю 10 900 м туман 8/0
[Cs]
-11.3 -12.7 89 -22 -22 976.0 951.3
06 16.04 Ю 9 5000 м дымка {туман} 5/0
[Cs]
-12.2 -13.7 89 -23 -23 975.9 951.3
09 16.04 Ю 10 15 км 8/0
[Ac As Cs]
-13.1 -14.7 88 -24 -24 976.3 951.4
12 16.04 Ю 10 100 м слаб. снег {туман} туман 10/10 60 м
[Frnb]
-13.5 -15.1 88 -25 -25 976.1 951.3 -14.2 -8.5
15 16.04 Ю 12 <100 м сильн. снег {туман} туман ?/? -13.8 -15.4 88 -26 -26 976.2 951.2
18 16.04 В 4 <100 м переохл. туман ?/? -9.1 -10.2 92 -16 -16 976.7 952.0
21 16.04 Ю 12 100 м туман {снег} 10/3 60 м
[Frnb As op]
-14.5 -16.2 87 -27 -27 977.0 951.8
00 17.04 Ю 15 100 м туман {снег} туман 10/5 180 м
[Frnb As op]
-14.5 -16.2 87 -28 -28 977.5 952.4 -15.4 -13.5
03 17.04 Ю 15 <100 м туман туман ?/? -15.2 -17.0 86 -29 -29 978.2 953.0
06 17.04 Ю 15 <100 м туман туман ?/? -16.0 -17.9 85 -31 -31 опасность
обморожения
978.4 953.2
09 17.04 Ю 15 <100 м туман туман ?/? -16.1 -18.0 85 -31 -31 опасность
обморожения
978.6 953.3
12 17.04 Ю 18 100 м туман туман 5/0
[Ac und]
-16.1 -18.0 85 -32 -32 опасность
обморожения
978.9 953.6 -17.1 -14.4
15 17.04 Ю 14 200 м сильная метель {туман} 3/0
[Ac und]
-14.9 -16.6 87 -29 -29 979.4 954.1
18 17.04 Ю 16 300 м сильная метель {туман} 4/0
[Ac und]
-15.3 -17.1 86 -30 -30 979.1 953.8
21 17.04 Ю 17 100 м сильная метель 5/0
[Ac As]
-16.3 -18.2 85 -31 -31 опасность
обморожения
979.0 953.6
00 18.04 ЮЗ 22 <100 м сильная метель ?/? -15.1 -16.9 86 -31 -31 опасность
обморожения
977.7 952.4 -16.4 -14.6
03 18.04 ЮЗ 21 <100 м сильная метель ?/? -14.0 -15.7 87 -29 -29 976.7 951.4
06 18.04 Ю 19 <100 м сильная метель ?/? -13.4 -15.0 88 -28 -28 976.4 951.3
09 18.04 Ю 20 <100 м сильная метель ?/? -12.6 -14.1 89 -27 -27 976.8 951.6
12 18.04 Ю 20 <100 м туман туман ?/? -13.1 -14.7 88 -28 -28 978.0 952.8 -15.4 -12.6
15 18.04 Ю 16 <100 м туман туман ?/? -13.9 -15.5 88 -28 -28 979.5 954.2
18 18.04 Ю 18 <100 м туман туман ?/? -14.3 -16.0 87 -29 -29 981.1 955.8
21 18.04 Ю 19 100 м туман туман 8/4 180 м
[St Cs]
-15.0 -16.8 86 -30 -30 981.8 956.6
00 19.04 Ю 15 800 м сильная метель {туман} ясно -15.9 -17.7 86 -30 -30 983.0 957.7 -15.9 -12.1
03 19.04 Ю 15 200 м сильная метель 6/0
[Cs]
-15.0 -16.8 86 -29 -29 983.7 958.4
06 19.04 Ю 9 15 км {метель} ясно -16.0 -17.9 85 -28 -28 985.8 960.2
09 19.04 Ю 8 15 км {туман} ясно -17.0 -19.0 84 -28 -28 986.8 961.2
12 19.04 Ю 7 15 км {туман} 4/4 50 м
[Frnb Ci sp]
-12.7 -18.7 61 -22 -22 987.1 961.4 -18.7 -12.7
15 19.04 ЮВ 4 15 км 8/8 600 м
[Sc]
-15.6 -17.4 86 -23 -23 985.4 959.8
18 19.04 В 4 15 км 9/9 450 м
[Sc]
-15.7 -17.5 86 -23 -23 984.4 958.9
21 19.04 Ю 4 15 км 9/4 450 м
[Sc Ci fib]
-18.1 -20.2 84 -27 -27 984.9 959.2
00 20.04 Ю 9 500 м туман ?/? -20.2 -22.5 82 -33 -33 опасность
обморожения
986.8 960.9 -20.3 -14.5
03 20.04 Ю 10 8000 м дымка {туман} 10/10 750 м
[Sc]
-19.6 -21.8 83 -33 -33 опасность
обморожения
988.1 962.2
06 20.04 Ю 14 10 км дымка {туман} 10/10 360 м
[St]
-18.6 -20.7 83 -34 -34 опасность
обморожения
988.3 962.6
09 20.04 Ю 17 1500 м сильный позёмок туман 10/10 600 м
[Sc]
-18.3 -20.4 84 -34 -34 опасность
обморожения
988.4 962.6
12 20.04 ЮЗ 20 100 м переохл. туман туман 8/5 150 м
[St Ac trans]
-18.1 -20.2 84 -35 -35 опасность
обморожения
988.8 962.9 -20.7 -18.0
15 20.04 ЮЗ 21 100 м переохл. туман туман 8/4 600 м
[Sc Ac As]
-17.1 -19.1 84 -34 -34 опасность
обморожения
989.7 963.8
18 20.04 ЮЗ 21 100 м переохл. туман туман ?/? -17.3 -19.3 84 -34 -34 опасность
обморожения
989.9 964.1
21 20.04 ЮЗ 21 100 м переохл. туман туман ?/? -15.9 -17.7 86 -32 -32 опасность
обморожения
990.3 964.5
00 21.04 Ю 22 900 м сильная метель {туман} 9/0
[Ac trans]
-14.5 -16.2 87 -30 -30 991.0 965.3 -18.1 -14.4
03 21.04 ЮЗ 21 300 м {метель} 10/0
[Ac As]
-14.0 -15.7 87 -29 -29 992.1 966.4
06 21.04 ЮЗ 23 300 м сильная метель 10/0
[Ac As]
-13.5 -15.1 88 -29 -29 992.4 966.6
09 21.04 ЮЗ 23 300 м сильная метель 10/0
[Ac As]
-13.0 -14.5 88 -29 -29 993.7 968.1
12 21.04 ЮЗ 23 5000 м сильный позёмок туман 10/6 900 м
[Sc Ac As]
-12.3 -13.8 89 -28 -28 994.8 969.3 -14.7 -12.1
15 21.04 ЮЗ 22 8000 м позёмок туман 8/0
[Ac As]
-11.0 -12.3 90 -26 -26 996.2 970.6
18 21.04 ЮЗ 20 15 км {метель} 8/0
[Ac und]
-10.3 -11.6 90 -24 -24 998.8 973.3
21 21.04 ЮЗ 16 15 км {метель} ясно -10.0 -11.2 91 -23 -23 999.9 974.4

 

Местоположение метеостанции Марамбио (Антарктида): широта -64.23 долгота -56.71 высота над уровнем моря 198 м.

В архиве по умолчанию представлена погода на Марамбио за последнюю неделю. Архивные данные за месяц целиком и за предыдущие месяцы, начиная с января 2011 года, Вы можете получить, выбрав интересующий диапазон дат из раскрывающегося списка и нажав кнопку "Ввод!".


*Определитесь, кто Вы:
робот инопланетянин человек

Внимание! Время в таблицах - всемирное. Для получения местного времени необходимо прибавить поправку, которая равна 0 ч.

Смотрите также архив погоды в соседних городах и на ближайших метеорологических станциях:

Погода на Эсперансе (Антарктида) (93 км)
Погода на Бернардо О`Хиггинс (Антарктида) (118 км)
Погода на Габриэль де Кастилья (Антарктида) (240 км)
Погода на Carlini Base (Антарктида) (242 км)
Погода на Captain Arturo Prat Base (Антарктида) (243 км)
Погода на King Sejong (Антарктида) (247 км)
Погода на Чанчэн (Антарктида) (251 км)
Погода на Dinamet-Уругвай (Антарктида) (252 км)
Погода на Беллинсгаузене (Антарктида) (252 км)
Погода на Острове Хуана Карлоса (Антарктида) (253 км)

Пояснения к столбцам:

Ветер - указаны скорость ветра в м/с - средняя за 10 мин, порывы в срок и между сроками (в фигурных скобках) и направление, откуда дует ветер: С - северный, СВ - северо-восточный, В - восточный, ЮВ - юго-восточный, Ю - южный, ЮЗ - юго-западный, З - западный, СЗ - северо-западный.
Видимость - горизонтальная дальность видимости в метрах или километрах. При видимости от 1 до 10 км при отсутствии осадков обычно наблюдается дымка, при ухудшении видимости до 1 км и менее - туман. В сухую погоду видимость может ухудшаться дымом, пылью или мглою.
Явления - указаны атмосферные явления, наблюдавшиеся в срок или в последний час перед сроком; фигурными скобками обозначены явления, наблюдавшиеся между сроками (за 1-3 часа до срока); квадратными скобками обозначены град или гололедные отложения с указанием их диаметра в мм.
Облачность - указаны через наклонную черту общая и нижняя облачность в баллах и высота нижней границы облаков в метрах; квадратными скобками обозначены формы облаков: Ci - перистые, Cs - перисто-слоистые, Cc - перисто-кучевые, Ac - высококучевые, As - высокослоистые, Sc - слоисто-кучевые, Ns - слоисто-дождевые, Cu - кучевые, Cb - кучево-дождевые. Подробнее классификацию облаков см. в Атласе облаков (PDF).
T - Температура воздуха - температура, измеренная на высоте 2 м над землей.
Td - Температура точки росы - температура, при понижении до которой содержащийся в воздухе водяной пар достигнет насыщения.
f - Относительная влажность воздуха - влажноcть воздуха, измеренная на высоте 2 м над землей.
Te - Эффективная температура - температура, которую ощущает одетый по сезону человек в тени. Характеристика душности погоды. При расчете учитывается влияние влажности воздуха и скорости ветра на теплоощущения человека.
Tes - Эффективная температура на солнце - температура, которую ощущает человек, с поправкой на солнечный нагрев. Характеристика знойности погоды. Зависит от высоты солнца над горизонтом, облачности и скорости ветра. Ночью, в пасмурную погоду, а также при ветре 12 м/с и более поправка равна нулю.
P - Атмосферное давление - приведенное к уровню моря атмосферное давление.
Po - Атмосферное давление - измеренное на уровне метеостанции атмосферное давление.
Tmin - Минимальная температура - минимум температуры воздуха на высоте 2 м над землей.
Tmax - Максимальная температура - максимум температуры воздуха на высоте 2 м над землей.
R - Количество осадков - Количество выпавших осадков за период времени, мм. При наведении курсора мыши на число - период времени, за который выпало указанное количество осадков.
R24 - Количество осадков - Количество выпавших осадков за 24 часа, мм.
S - Снежный покров - Высота снежного покрова, см. При наведении курсора мыши на число - состояние снежного покрова и степень покрытия местности в баллах.